QPF
0.00 0.00 0.00 0.00 0.00 0.00 0.01 0.02 0.03 0.04 0.04 0.04 0.02 0.02 0.01 0.01 0.00 0.00 0.00 0.00 0.00 0.00 0.00 0.01 0.01 0.01 0.01 0.01 0.01 0.00 0.00 0.00 0.00 0.00 0.00 0.00 0.01 0.05 0.05 0.09 0.11 0.07 0.03
0.00 0.00 0.00 0.00 0.00 0.00 0.01 0.02 0.03 0.04 0.04 0.04 0.03 0.02 0.01 0.01 0.01 0.01 0.00 0.00 0.00 0.00 0.00 0.00 0.00 0.01 0.01 0.00 0.01 0.00 0.00 0.00 0.00 0.01 0.01 0.02 0.02 0.04 0.06 0.09 0.13 0.07 0.04
0.00 0.00 0.00 0.00 0.00 0.00 0.01 0.02 0.03 0.03 0.04 0.03 0.02 0.01 0.01 0.01 0.01 0.00 0.00 0.00 0.00 0.00 0.00 0.00 0.00 0.00 0.00 0.00 0.00 0.00 0.00 0.00 0.02 0.06 0.16 0.14 0.02 0.02 0.06 0.09 0.09 0.04 0.04
0.00 0.00 0.00 0.00 0.00 0.00 0.01 0.01 0.02 0.03 0.03 0.03 0.02 0.01 0.01 0.01 0.00 0.00 0.00 0.00 0.00 0.00 0.00 0.00 0.00 0.00 0.00 0.00 0.00 0.00 0.00 0.01 0.03 0.11 0.26 0.16 0.06 0.02 0.05 0.07 0.05 0.03 0.03
0.00 0.00 0.00 0.00 0.00 0.00 0.00 0.01 0.02 0.02 0.03 0.02 0.01 0.01 0.01 0.00 0.00 0.00 0.00 0.00 0.00 0.01 0.01 0.01 0.01 0.00 0.00 0.00 0.00 0.00 0.00 0.01 0.04 0.12 0.16 0.16 0.18 0.05 0.03 0.04 0.03 0.02 0.01
0.00 0.00 0.00 0.00 0.00 0.00 0.00 0.01 0.01 0.01 0.01 0.01 0.00 0.00 0.00 0.00 0.00 0.00 0.00 0.00 0.01 0.01 0.01 0.01 0.01 0.01 0.00 0.00 0.00 0.00 0.01 0.01 0.06 0.09 0.07 0.12 0.13 0.03 0.03 0.04 0.04 0.02 0.01
0.00 0.00 0.00 0.00 0.00 0.00 0.00 0.01 0.01 0.01 0.01 0.01 0.00 0.00 0.00 0.00 0.00 0.00 0.00 0.00 0.01 0.01 0.01 0.02 0.02 0.01 0.01 0.00 0.00 0.00 0.00 0.02 0.07 0.06 0.03 0.10 0.11 0.02 0.03 0.04 0.04 0.03 0.03
0.00 0.00 0.00 0.00 0.00 0.00 0.00 0.01 0.01 0.01 0.01 0.01 0.00 0.00 0.00 0.01 0.01 0.01 0.01 0.01 0.01 0.01 0.02 0.02 0.03 0.02 0.02 0.01 0.00 0.00 0.00 0.01 0.03 0.03 0.02 0.08 0.06 0.01 0.02 0.04 0.05 0.04 0.04
0.00 0.00 0.01 0.00 0.01 0.01 0.01 0.01 0.01 0.01 0.01 0.01 0.01 0.01 0.01 0.01 0.01 0.01 0.01 0.01 0.01 0.02 0.02 0.02 0.03 0.03 0.02 0.02 0.01 0.00 0.00 0.01 0.03 0.02 0.03 0.07 0.02 0.01 0.01 0.02 0.04 0.05 0.05
0.00 0.00 0.00 0.01 0.02 0.02 0.02 0.02 0.02 0.02 0.02 0.01 0.01 0.01 0.02 0.01 0.02 0.02 0.02 0.02 0.02 0.02 0.02 0.03 0.03 0.03 0.04 0.03 0.01 0.01 0.00 0.00 0.01 0.01 0.04 0.06 0.02 0.01 0.01 0.02 0.02 0.04 0.05
0.00 0.00 0.01 0.01 0.02 0.03 0.04 0.04 0.03 0.03 0.03 0.02 0.03 0.03 0.03 0.06 0.09 0.11 0.07 0.05 0.04 0.03 0.03 0.04 0.04 0.03 0.03 0.03 0.02 0.02 0.01 0.00 0.00 0.01 0.04 0.08 0.05 0.02 0.02 0.02 0.02 0.03 0.04
0.00 0.00 0.01 0.02 0.01 0.02 0.04 0.08 0.09 0.09 0.11 0.08 0.13 0.12 0.12 0.13 0.11 0.10 0.12 0.09 0.07 0.04 0.05 0.07 0.05 0.04 0.03 0.04 0.08 0.10 0.03 0.01 0.01 0.01 0.04 0.06 0.07 0.06 0.04 0.04 0.04 0.04 0.04
0.00 0.00 0.00 0.01 0.01 0.02 0.04 0.06 0.10 0.12 0.16 0.12 0.11 0.12 0.14 0.12 0.10 0.10 0.14 0.14 0.12 0.09 0.10 0.12 0.12 0.10 0.12 0.11 0.14 0.17 0.09 0.05 0.02 0.01 0.10 0.17 0.12 0.08 0.06 0.05 0.05 0.04 0.04
0.00 0.01 0.01 0.01 0.02 0.03 0.03 0.05 0.08 0.09 0.12 0.12 0.11 0.08 0.11 0.12 0.12 0.12 0.14 0.15 0.15 0.14 0.14 0.15 0.18 0.21 0.18 0.16 0.15 0.16 0.13 0.14 0.09 0.04 0.16 0.32 0.20 0.10 0.07 0.05 0.05 0.05 0.05
0.01 0.01 0.02 0.01 0.01 0.02 0.04 0.06 0.06 0.07 0.09 0.09 0.09 0.07 0.08 0.09 0.10 0.11 0.16 0.16 0.16 0.16 0.16 0.17 0.17 0.17 0.17 0.17 0.15 0.16 0.12 0.11 0.11 0.09 0.18 0.24 0.16 0.10 0.08 0.06 0.05 0.05 0.06
0.02 0.03 0.03 0.02 0.02 0.04 0.04 0.05 0.06 0.06 0.07 0.06 0.05 0.04 0.04 0.05 0.06 0.07 0.08 0.10 0.11 0.13 0.15 0.15 0.14 0.13 0.11 0.11 0.10 0.12 0.11 0.11 0.11 0.12 0.17 0.20 0.13 0.07 0.06 0.06 0.05 0.04 0.06
0.04 0.03 0.02 0.03 0.04 0.04 0.04 0.05 0.05 0.04 0.04 0.03 0.03 0.03 0.03 0.04 0.03 0.03 0.04 0.05 0.06 0.08 0.09 0.09 0.09 0.10 0.09 0.09 0.10 0.10 0.11 0.12 0.11 0.12 0.14 0.17 0.15 0.11 0.07 0.06 0.05 0.04 0.05
0.03 0.02 0.01 0.02 0.04 0.04 0.05 0.05 0.04 0.03 0.03 0.02 0.02 0.02 0.02 0.01 0.02 0.01 0.02 0.02 0.02 0.03 0.04 0.05 0.04 0.04 0.05 0.05 0.06 0.07 0.08 0.08 0.06 0.08 0.10 0.12 0.15 0.14 0.13 0.09 0.07 0.05 0.04
0.03 0.03 0.02 0.03 0.04 0.04 0.03 0.02 0.02 0.02 0.02 0.02 0.01 0.01 0.00 0.00 0.00 0.00 0.01 0.01 0.01 0.01 0.01 0.01 0.02 0.02 0.02 0.02 0.03 0.04 0.06 0.07 0.06 0.06 0.07 0.07 0.10 0.11 0.13 0.14 0.09 0.07 0.05
0.04 0.04 0.03 0.02 0.02 0.01 0.01 0.01 0.01 0.01 0.01 0.00 0.00 0.00 0.00 0.00 0.00 0.00 0.00 0.01 0.01 0.01 0.01 0.01 0.01 0.01 0.01 0.01 0.01 0.01 0.01 0.02 0.03 0.03 0.04 0.06 0.06 0.07 0.08 0.13 0.15 0.08 0.06
0.03 0.03 0.02 0.01 0.01 0.01 0.01 0.01 0.01 0.00 0.00 0.00 0.00 0.00 0.00 0.00 0.00 0.00 0.00 0.00 0.00 0.01 0.01 0.01 0.01 0.01 0.01 0.00 0.00 0.00 0.00 0.00 0.01 0.02 0.02 0.03 0.04 0.05 0.08 0.13 0.14 0.13 0.10
0.02 0.01 0.01 0.01 0.01 0.01 0.01 0.00 0.00 0.00 0.00 0.00 0.00 0.00 0.00 0.00 0.00 0.00 0.00 0.00 0.00 0.00 0.00 0.01 0.01 0.01 0.01 0.00 0.00 0.00 0.00 0.00 0.01 0.01 0.03 0.04 0.05 0.07 0.06 0.08 0.11 0.12 0.10
0.02 0.01 0.01 0.01 0.01 0.01 0.01 0.01 0.01 0.00 0.00 0.01 0.01 0.01 0.00 0.00 0.00 0.00 0.00 0.00 0.00 0.00 0.00 0.01 0.01 0.01 0.01 0.00 0.00 0.00 0.00 0.01 0.01 0.01 0.03 0.05 0.07 0.07 0.06 0.07 0.09 0.13 0.13
0.00 0.00 0.00 0.00 0.01 0.01 0.01 0.01 0.01 0.01 0.01 0.01 0.01 0.00 0.00 0.00 0.00 0.00 0.00 0.00 0.00 0.00 0.00 0.00 0.00 0.01 0.01 0.01 0.01 0.01 0.01 0.00 0.00 0.01 0.02 0.04 0.05 0.06 0.06 0.06 0.06 0.10 0.13
0.00 0.00 0.00 0.02 0.02 0.02 0.01 0.01 0.01 0.01 0.01 0.01 0.00 0.00 0.00 0.00 0.00 0.00 0.00 0.00 0.00 0.00 0.00 0.00 0.00 0.00 0.00 0.01 0.01 0.01 0.01 0.01 0.01 0.01 0.01 0.02 0.03 0.03 0.04 0.04 0.05 0.06 0.08
0.00 0.00 0.01 0.04 0.04 0.02 0.01 0.01 0.01 0.01 0.00 0.00 0.00 0.00 0.00 0.00 0.00 0.00 0.00 0.00 0.00 0.00 0.00 0.00 0.01 0.01 0.01 0.01 0.01 0.01 0.01 0.01 0.01 0.01 0.01 0.01 0.01 0.01 0.01 0.02 0.03 0.04 0.05
MSLP
1010.22 1010.20 1010.32 1010.63 1011.11 1011.69 1012.29 1012.82 1013.23 1013.50 1013.66 1013.76 1013.89 1014.07 1014.35 1014.71 1015.10 1015.49 1015.80 1016.02 1016.15 1016.19 1016.19 1016.20 1016.23 1016.30 1016.41 1016.52 1016.61 1016.65 1016.65 1016.62 1016.57 1016.53 1016.53 1016.58 1016.67 1016.80 1016.95 1017.09 1017.23 1017.36 1017.50
1010.25 1010.33 1010.55 1010.93 1011.46 1012.05 1012.62 1013.10 1013.46 1013.68 1013.81 1013.90 1014.04 1014.26 1014.57 1014.95 1015.35 1015.72 1016.01 1016.20 1016.29 1016.32 1016.32 1016.34 1016.40 1016.49 1016.62 1016.74 1016.83 1016.86 1016.85 1016.80 1016.75 1016.73 1016.76 1016.84 1016.98 1017.15 1017.33 1017.50 1017.65 1017.78 1017.90
1010.22 1010.43 1010.76 1011.24 1011.82 1012.43 1012.98 1013.43 1013.73 1013.91 1014.01 1014.11 1014.25 1014.48 1014.80 1015.17 1015.54 1015.86 1016.10 1016.24 1016.30 1016.31 1016.33 1016.38 1016.48 1016.63 1016.79 1016.93 1017.02 1017.04 1017.01 1016.95 1016.89 1016.88 1016.94 1017.06 1017.25 1017.47 1017.68 1017.88 1018.05 1018.18 1018.29
1010.13 1010.47 1010.95 1011.54 1012.18 1012.82 1013.36 1013.77 1014.03 1014.18 1014.26 1014.35 1014.50 1014.73 1015.03 1015.37 1015.68 1015.94 1016.10 1016.18 1016.20 1016.22 1016.26 1016.36 1016.52 1016.73 1016.93 1017.08 1017.17 1017.18 1017.12 1017.04 1016.98 1016.97 1017.05 1017.22 1017.45 1017.71 1017.97 1018.20 1018.38 1018.53 1018.65
1009.97 1010.47 1011.09 1011.80 1012.52 1013.18 1013.72 1014.09 1014.32 1014.44 1014.51 1014.61 1014.76 1014.99 1015.27 1015.55 1015.80 1015.97 1016.06 1016.08 1016.08 1016.09 1016.17 1016.33 1016.55 1016.81 1017.05 1017.22 1017.30 1017.28 1017.20 1017.09 1017.01 1017.01 1017.10 1017.30 1017.56 1017.86 1018.16 1018.42 1018.63 1018.81 1018.95
1009.77 1010.43 1011.21 1012.03 1012.82 1013.50 1014.02 1014.36 1014.55 1014.65 1014.72 1014.82 1014.99 1015.21 1015.47 1015.72 1015.90 1016.01 1016.03 1016.00 1015.97 1015.99 1016.11 1016.31 1016.59 1016.89 1017.15 1017.33 1017.39 1017.34 1017.22 1017.08 1016.98 1016.97 1017.08 1017.29 1017.58 1017.91 1018.24 1018.53 1018.78 1018.98 1019.16
1009.58 1010.39 1011.29 1012.20 1013.04 1013.73 1014.23 1014.53 1014.69 1014.77 1014.84 1014.96 1015.14 1015.38 1015.64 1015.86 1016.00 1016.05 1016.02 1015.96 1015.92 1015.95 1016.09 1016.33 1016.64 1016.97 1017.23 1017.39 1017.42 1017.34 1017.18 1017.01 1016.89 1016.87 1016.98 1017.21 1017.51 1017.86 1018.21 1018.53 1018.81 1019.05 1019.27
1009.44 1010.35 1011.35 1012.32 1013.19 1013.86 1014.32 1014.58 1014.71 1014.77 1014.85 1015.00 1015.21 1015.48 1015.75 1015.97 1016.10 1016.12 1016.06 1015.97 1015.92 1015.96 1016.11 1016.37 1016.70 1017.02 1017.27 1017.40 1017.40 1017.27 1017.08 1016.88 1016.74 1016.72 1016.83 1017.06 1017.37 1017.73 1018.09 1018.42 1018.72 1019.00 1019.26
1009.38 1010.36 1011.40 1012.40 1013.25 1013.88 1014.29 1014.51 1014.60 1014.66 1014.76 1014.94 1015.20 1015.52 1015.82 1016.06 1016.18 1016.20 1016.13 1016.03 1015.98 1016.01 1016.16 1016.42 1016.73 1017.02 1017.25 1017.34 1017.30 1017.14 1016.92 1016.71 1016.56 1016.54 1016.64 1016.86 1017.17 1017.53 1017.89 1018.23 1018.55 1018.85 1019.15
1009.43 1010.42 1011.47 1012.44 1013.24 1013.82 1014.16 1014.33 1014.40 1014.46 1014.59 1014.81 1015.13 1015.50 1015.85 1016.11 1016.26 1016.28 1016.21 1016.12 1016.05 1016.08 1016.21 1016.44 1016.71 1016.97 1017.15 1017.21 1017.14 1016.96 1016.74 1016.52 1016.37 1016.35 1016.44 1016.66 1016.95 1017.29 1017.64 1017.98 1018.31 1018.63 1018.96
1009.60 1010.57 1011.57 1012.47 1013.20 1013.70 1013.98 1014.11 1014.16 1014.23 1014.39 1014.67 1015.04 1015.46 1015.85 1016.15 1016.33 1016.36 1016.30 1016.20 1016.13 1016.14 1016.24 1016.43 1016.66 1016.87 1017.01 1017.04 1016.95 1016.76 1016.54 1016.33 1016.19 1016.17 1016.26 1016.45 1016.72 1017.03 1017.36 1017.69 1018.02 1018.36 1018.71
1009.88 1010.78 1011.70 1012.52 1013.15 1013.57 1013.79 1013.88 1013.94 1014.03 1014.23 1014.56 1014.98 1015.44 1015.87 1016.19 1016.39 1016.44 1016.38 1016.29 1016.20 1016.18 1016.25 1016.39 1016.57 1016.74 1016.84 1016.84 1016.75 1016.57 1016.36 1016.17 1016.04 1016.01 1016.08 1016.25 1016.48 1016.76 1017.06 1017.37 1017.70 1018.05 1018.43
1010.24 1011.05 1011.87 1012.58 1013.12 1013.46 1013.64 1013.72 1013.78 1013.91 1014.15 1014.51 1014.97 1015.46 1015.90 1016.24 1016.44 1016.51 1016.46 1016.36 1016.26 1016.22 1016.26 1016.35 1016.49 1016.61 1016.68 1016.66 1016.57 1016.40 1016.21 1016.04 1015.91 1015.87 1015.91 1016.04 1016.22 1016.46 1016.72 1017.02 1017.35 1017.71 1018.12
1010.64 1011.37 1012.08 1012.69 1013.14 1013.43 1013.57 1013.65 1013.74 1013.90 1014.17 1014.56 1015.03 1015.52 1015.96 1016.30 1016.50 1016.56 1016.52 1016.42 1016.32 1016.26 1016.27 1016.33 1016.41 1016.50 1016.54 1016.51 1016.42 1016.27 1016.10 1015.93 1015.80 1015.73 1015.73 1015.79 1015.92 1016.11 1016.34 1016.62 1016.95 1017.33 1017.76
1011.04 1011.69 1012.32 1012.84 1013.22 1013.47 1013.60 1013.69 1013.81 1014.00 1014.30 1014.70 1015.16 1015.63 1016.04 1016.36 1016.54 1016.61 1016.57 1016.48 1016.38 1016.31 1016.30 1016.32 1016.38 1016.43 1016.44 1016.41 1016.32 1016.17 1016.00 1015.83 1015.67 1015.56 1015.50 1015.50 1015.56 1015.69 1015.88 1016.14 1016.48 1016.89 1017.35
1011.42 1012.02 1012.57 1013.03 1013.36 1013.58 1013.72 1013.84 1013.99 1014.21 1014.52 1014.90 1015.33 1015.75 1016.12 1016.40 1016.56 1016.62 1016.59 1016.52 1016.43 1016.37 1016.34 1016.35 1016.38 1016.39 1016.39 1016.34 1016.24 1016.09 1015.91 1015.72 1015.53 1015.36 1015.23 1015.15 1015.13 1015.20 1015.35 1015.59 1015.94 1016.37 1016.86
1011.78 1012.33 1012.83 1013.24 1013.54 1013.76 1013.91 1014.06 1014.24 1014.48 1014.78 1015.13 1015.51 1015.87 1016.18 1016.40 1016.54 1016.60 1016.58 1016.54 1016.48 1016.43 1016.41 1016.40 1016.40 1016.39 1016.36 1016.29 1016.17 1016.01 1015.82 1015.60 1015.36 1015.13 1014.92 1014.76 1014.66 1014.66 1014.77 1014.99 1015.34 1015.78 1016.30
1012.11 1012.64 1013.10 1013.46 1013.74 1013.95 1014.13 1014.31 1014.52 1014.76 1015.05 1015.36 1015.67 1015.95 1016.19 1016.36 1016.48 1016.53 1016.54 1016.53 1016.51 1016.49 1016.48 1016.46 1016.44 1016.41 1016.34 1016.25 1016.12 1015.94 1015.73 1015.47 1015.20 1014.90 1014.62 1014.38 1014.21 1014.13 1014.19 1014.38 1014.71 1015.15 1015.68
1012.45 1012.94 1013.35 1013.68 1013.93 1014.15 1014.34 1014.55 1014.78 1015.02 1015.28 1015.54 1015.78 1015.98 1016.15 1016.28 1016.37 1016.43 1016.48 1016.51 1016.54 1016.55 1016.55 1016.53 1016.49 1016.43 1016.34 1016.22 1016.07 1015.88 1015.65 1015.38 1015.07 1014.73 1014.39 1014.07 1013.82 1013.68 1013.67 1013.81 1014.11 1014.53 1015.05
1012.78 1013.23 1013.58 1013.85 1014.08 1014.30 1014.51 1014.74 1014.99 1015.24 1015.47 1015.67 1015.84 1015.98 1016.08 1016.17 1016.24 1016.32 1016.40 1016.48 1016.55 1016.60 1016.62 1016.60 1016.55 1016.47 1016.35 1016.22 1016.06 1015.86 1015.63 1015.36 1015.03 1014.66 1014.28 1013.90 1013.59 1013.37 1013.29 1013.36 1013.60 1013.97 1014.44
1013.09 1013.47 1013.75 1013.97 1014.17 1014.38 1014.61 1014.87 1015.14 1015.39 1015.60 1015.77 1015.88 1015.95 1016.00 1016.05 1016.12 1016.22 1016.33 1016.46 1016.57 1016.66 1016.69 1016.68 1016.62 1016.52 1016.39 1016.24 1016.08 1015.90 1015.69 1015.43 1015.11 1014.74 1014.33 1013.92 1013.54 1013.26 1013.09 1013.08 1013.22 1013.51 1013.90
1013.35 1013.63 1013.83 1014.00 1014.17 1014.38 1014.64 1014.94 1015.23 1015.49 1015.70 1015.83 1015.90 1015.92 1015.93 1015.96 1016.03 1016.14 1016.29 1016.45 1016.60 1016.72 1016.77 1016.76 1016.69 1016.58 1016.44 1016.30 1016.16 1016.00 1015.82 1015.60 1015.31 1014.96 1014.55 1014.12 1013.70 1013.34 1013.09 1012.98 1013.01 1013.19 1013.48
1013.48 1013.67 1013.80 1013.92 1014.08 1014.30 1014.60 1014.93 1015.27 1015.56 1015.77 1015.89 1015.93 1015.92 1015.90 1015.91 1015.97 1016.09 1016.27 1016.46 1016.64 1016.77 1016.84 1016.83 1016.76 1016.64 1016.51 1016.37 1016.25 1016.14 1016.01 1015.84 1015.60 1015.29 1014.91 1014.47 1014.02 1013.60 1013.27 1013.05 1012.96 1013.01 1013.18
1013.43 1013.55 1013.62 1013.72 1013.89 1014.15 1014.50 1014.89 1015.27 1015.60 1015.82 1015.94 1015.97 1015.94 1015.90 1015.89 1015.95 1016.07 1016.26 1016.47 1016.66 1016.80 1016.87 1016.86 1016.78 1016.67 1016.54 1016.43 1016.34 1016.27 1016.19 1016.08 1015.91 1015.65 1015.30 1014.88 1014.42 1013.96 1013.55 1013.23 1013.02 1012.94 1012.98
1013.18 1013.26 1013.32 1013.43 1013.64 1013.96 1014.37 1014.83 1015.26 1015.62 1015.87 1015.99 1016.00 1015.96 1015.90 1015.88 1015.93 1016.05 1016.23 1016.44 1016.63 1016.77 1016.83 1016.82 1016.74 1016.62 1016.50 1016.41 1016.35 1016.32 1016.30 1016.26 1016.15 1015.95 1015.65 1015.26 1014.80 1014.31 1013.85 1013.45 1013.14 1012.94 1012.86
1012.74 1012.82 1012.91 1013.07 1013.35 1013.75 1014.24 1014.75 1015.24 1015.63 1015.89 1016.01 1016.02 1015.96 1015.88 1015.84 1015.87 1015.98 1016.14 1016.34 1016.52 1016.65 1016.70 1016.67 1016.59 1016.47 1016.36 1016.28 1016.24 1016.25 1016.28 1016.29 1016.24 1016.10 1015.85 1015.50 1015.06 1014.58 1014.08 1013.63 1013.24 1012.95 1012.77
Thickness
5825 5819 5813 5809 5806 5803 5800 5797 5794 5791 5788 5785 5782 5780 5778 5775 5773 5772 5770 5769 5767 5766 5765 5763 5762 5761 5760 5759 5758 5757 5756 5755 5755 5754 5753 5752 5751 5751 5749 5748 5748 5746 5745
5826 5817 5810 5807 5804 5801 5798 5795 5792 5789 5786 5783 5781 5778 5776 5774 5772 5770 5768 5767 5766 5765 5763 5762 5761 5759 5758 5757 5756 5755 5754 5754 5753 5752 5752 5751 5750 5749 5748 5747 5747 5744 5743
5823 5814 5808 5804 5801 5798 5796 5793 5790 5787 5784 5781 5779 5777 5774 5772 5770 5769 5767 5766 5764 5763 5762 5760 5759 5758 5756 5755 5755 5754 5753 5752 5752 5751 5750 5750 5748 5747 5746 5745 5744 5742 5741
5822 5814 5807 5801 5798 5795 5792 5790 5788 5785 5782 5779 5777 5775 5773 5770 5769 5767 5765 5764 5763 5761 5760 5758 5757 5756 5755 5754 5753 5752 5752 5751 5751 5750 5750 5750 5748 5745 5744 5743 5742 5740 5739
5820 5811 5803 5799 5795 5792 5789 5787 5785 5782 5780 5777 5775 5773 5771 5769 5767 5765 5764 5762 5761 5759 5758 5756 5755 5754 5753 5752 5751 5750 5750 5750 5750 5750 5750 5749 5747 5744 5742 5741 5740 5739 5738
5816 5808 5800 5796 5792 5789 5786 5784 5781 5779 5777 5775 5772 5770 5768 5767 5765 5763 5762 5761 5759 5757 5756 5754 5753 5751 5751 5750 5749 5748 5749 5749 5749 5751 5750 5748 5745 5743 5741 5740 5738 5737 5736
5816 5806 5798 5793 5789 5786 5783 5781 5778 5776 5774 5772 5770 5768 5766 5764 5763 5761 5760 5758 5757 5755 5753 5752 5750 5749 5748 5747 5747 5746 5747 5747 5748 5751 5750 5748 5744 5742 5740 5738 5737 5736 5734
5815 5805 5795 5790 5787 5783 5781 5778 5775 5773 5771 5769 5767 5765 5763 5762 5760 5759 5757 5755 5754 5752 5751 5749 5748 5747 5746 5745 5744 5744 5744 5744 5748 5751 5750 5747 5744 5741 5739 5737 5735 5734 5733
5814 5803 5794 5789 5784 5780 5778 5775 5772 5770 5768 5766 5764 5762 5760 5759 5757 5756 5755 5753 5751 5750 5748 5747 5746 5745 5744 5743 5742 5742 5742 5742 5744 5748 5749 5745 5743 5741 5738 5736 5734 5733 5732
5811 5804 5796 5790 5784 5779 5776 5772 5770 5767 5765 5763 5761 5759 5757 5756 5754 5753 5752 5750 5749 5747 5746 5745 5744 5743 5742 5742 5741 5740 5740 5740 5742 5746 5747 5744 5743 5741 5737 5735 5733 5732 5731
5805 5801 5796 5790 5784 5780 5776 5771 5768 5765 5762 5760 5758 5756 5755 5753 5753 5751 5749 5747 5745 5744 5743 5742 5741 5741 5740 5739 5739 5739 5738 5739 5742 5745 5746 5742 5741 5740 5737 5734 5733 5731 5730
5794 5794 5793 5789 5783 5779 5776 5770 5767 5764 5760 5757 5755 5753 5751 5750 5750 5748 5746 5743 5742 5741 5740 5740 5739 5738 5737 5737 5738 5737 5737 5738 5740 5743 5743 5741 5739 5738 5736 5734 5732 5730 5730
5791 5790 5788 5784 5779 5776 5772 5767 5764 5760 5756 5754 5752 5750 5748 5747 5745 5744 5741 5739 5737 5737 5737 5737 5735 5734 5734 5735 5735 5735 5736 5737 5739 5740 5739 5736 5735 5734 5734 5734 5731 5730 5729
5786 5783 5782 5779 5774 5770 5767 5764 5760 5757 5753 5751 5748 5746 5744 5742 5740 5738 5736 5735 5734 5733 5733 5733 5732 5731 5731 5732 5732 5732 5733 5735 5737 5736 5736 5734 5731 5731 5732 5732 5731 5728 5728
5780 5778 5776 5773 5768 5764 5760 5757 5755 5753 5750 5747 5744 5741 5738 5737 5735 5734 5731 5730 5730 5729 5729 5728 5727 5727 5727 5728 5729 5730 5731 5733 5734 5733 5731 5730 5730 5730 5730 5730 5729 5728 5727
5774 5771 5769 5766 5762 5758 5755 5752 5750 5748 5745 5743 5739 5736 5733 5732 5730 5728 5727 5726 5725 5725 5723 5722 5723 5723 5723 5724 5725 5726 5727 5729 5730 5731 5729 5729 5729 5729 5729 5729 5727 5727 5726
5770 5767 5764 5761 5758 5754 5751 5749 5747 5744 5742 5738 5735 5732 5729 5727 5724 5723 5723 5722 5721 5720 5719 5719 5719 5719 5719 5721 5722 5723 5724 5725 5726 5727 5728 5728 5727 5727 5728 5727 5727 5726 5726
5767 5763 5761 5760 5753 5749 5746 5745 5743 5740 5737 5734 5731 5728 5724 5722 5719 5717 5717 5717 5715 5715 5715 5715 5714 5714 5714 5715 5716 5718 5721 5722 5723 5724 5725 5725 5726 5726 5726 5726 5725 5725 5725
5763 5760 5756 5754 5749 5746 5743 5741 5739 5736 5733 5730 5728 5724 5720 5717 5715 5712 5711 5711 5710 5709 5710 5710 5709 5708 5706 5707 5710 5714 5717 5719 5721 5722 5723 5724 5725 5726 5726 5725 5724 5724 5724
5759 5756 5752 5749 5746 5743 5741 5738 5736 5733 5730 5728 5724 5720 5716 5712 5710 5707 5706 5705 5704 5703 5703 5702 5701 5702 5701 5702 5705 5709 5712 5715 5718 5719 5721 5723 5723 5724 5725 5725 5724 5723 5723
5754 5751 5749 5745 5743 5740 5737 5734 5730 5727 5726 5724 5721 5717 5713 5708 5705 5703 5701 5699 5699 5698 5696 5696 5695 5694 5695 5698 5698 5699 5705 5713 5716 5718 5719 5720 5721 5722 5723 5722 5722 5722 5722
5752 5749 5746 5743 5741 5738 5736 5732 5729 5725 5723 5722 5719 5714 5710 5706 5702 5700 5697 5694 5693 5692 5691 5691 5690 5687 5688 5691 5689 5687 5689 5698 5706 5715 5715 5715 5716 5717 5717 5718 5718 5719 5719
5750 5748 5748 5743 5740 5737 5734 5731 5728 5723 5719 5717 5714 5711 5708 5704 5700 5697 5693 5691 5689 5687 5686 5686 5685 5683 5680 5683 5685 5682 5679 5680 5687 5699 5704 5707 5708 5709 5710 5711 5712 5714 5715
5752 5751 5748 5744 5740 5736 5732 5727 5722 5717 5713 5712 5711 5709 5706 5702 5699 5696 5692 5689 5686 5684 5682 5682 5682 5678 5676 5675 5677 5680 5679 5678 5673 5677 5687 5694 5699 5700 5702 5704 5706 5708 5710
5756 5753 5749 5743 5738 5734 5730 5725 5719 5715 5713 5711 5708 5705 5702 5701 5698 5695 5691 5687 5684 5680 5679 5677 5675 5673 5671 5669 5669 5670 5672 5673 5672 5668 5669 5678 5685 5691 5695 5697 5699 5702 5704
5758 5754 5749 5742 5735 5732 5727 5723 5718 5713 5709 5705 5702 5699 5698 5698 5697 5695 5690 5686 5681 5678 5675 5672 5670 5668 5666 5665 5663 5663 5662 5662 5663 5663 5663 5666 5671 5679 5686 5690 5692 5695 5698